GFSFLT1_250_rhum_060.txt.gz
RH
35 38 22 20 18 29 100 76 55 84 95 77 88 92 87 79 69 86 89 100 100 97 100 100 100 100 100 100 100 100 100 100
35 42 30 29 19 20 100 97 75 56 79 88 100 100 78 88 71 100 94 100 100 100 100 100 98 100 100 100 100 100 100 86
31 40 36 33 27 20 63 100 91 79 100 100 100 100 100 93 100 100 100 100 100 96 100 100 100 94 100 100 100 100 100 76
37 28 39 38 36 24 47 100 100 63 96 100 96 100 100 94 97 100 100 100 100 92 100 97 100 94 94 100 100 100 95 40
39 37 32 30 33 29 23 82 100 95 72 100 85 100 88 100 99 100 100 100 100 73 60 73 68 70 83 100 100 86 75 90
36 40 47 26 32 29 28 25 92 100 95 71 100 100 66 59 100 100 100 98 100 100 100 100 100 100 100 100 91 69 83 100
58 48 54 31 27 33 30 26 26 94 100 97 69 99 100 100 64 96 100 100 100 100 100 98 84 89 98 97 94 100 100 100
64 68 71 42 27 27 30 34 31 24 100 100 100 92 90 100 100 100 77 85 94 100 100 100 100 100 100 100 100 99 88 86
41 71 89 73 35 33 26 32 33 35 28 39 98 100 100 96 100 90 100 100 99 90 88 86 82 79 69 65 60 52 62 100
74 46 89 86 62 31 29 26 31 37 42 40 34 49 100 100 100 100 100 93 89 100 98 75 73 78 85 97 100 100 100 100
100 44 34 62 87 55 28 27 24 31 39 35 39 42 29 68 99 100 100 95 98 100 100 100 100 100 100 100 100 100 100 100
80 50 42 40 100 95 60 25 41 26 28 37 35 40 44 36 30 43 83 100 100 100 100 100 100 100 100 100 100 100 100 100
65 45 38 39 52 100 86 43 23 26 36 28 26 35 39 41 39 37 31 27 29 40 64 83 100 100 100 100 100 100 100 100
62 48 39 35 37 39 100 90 64 32 41 46 31 32 42 42 44 48 43 42 44 34 28 26 27 27 28 38 46 60 70 70
55 48 47 44 50 43 71 100 99 54 41 81 61 45 37 41 75 78 40 45 50 45 43 47 37 30 32 31 30 29 29 31
68 68 60 45 62 56 44 100 100 82 49 67 87 58 44 38 29 39 72 99 80 62 56 45 40 38 42 44 48 58 54 58
100 96 71 65 66 59 88 100 100 79 51 48 100 87 77 66 48 34 34 56 98 71 64 53 66 74 64 55 54 61 70 46
100 100 100 100 99 72 63 100 100 77 70 62 99 100 100 92 63 46 40 37 32 36 56 92 71 88 100 94 80 68 62 67
100 100 98 100 100 79 91 72 85 71 88 59 59 98 100 92 77 61 55 46 38 37 40 52 79 88 92 91 97 98 91 84

GFSFLT1_250_rhum_063.txt.gz
RH
39 32 24 36 26 20 18 25 50 57 60 86 100 100 100 100 100 100 100 100 100 100 93 90 95 79 87 100 93 100 100 100
30 26 22 32 30 24 19 18 64 70 63 69 60 70 84 81 76 79 83 100 90 79 93 100 99 86 80 92 100 88 74 98
32 32 28 26 27 26 24 24 80 76 55 69 78 55 53 48 50 75 53 69 67 80 100 100 97 99 100 100 100 100 100 100
34 40 32 32 27 25 25 30 100 91 62 52 56 52 58 63 70 85 79 65 85 100 100 100 82 80 71 85 100 100 100 98
38 33 38 28 33 22 25 22 70 100 74 52 47 48 98 71 55 91 77 98 100 100 100 90 69 54 79 100 100 100 98 90
43 38 49 44 35 23 26 24 24 92 100 70 54 46 66 100 78 60 100 100 100 100 100 100 88 94 100 100 100 100 100 92
74 41 44 59 53 37 22 24 27 23 94 100 79 64 48 79 100 100 77 100 100 100 100 100 98 95 90 76 68 77 90 87
96 80 56 47 58 54 30 20 28 33 27 94 100 97 70 65 50 52 65 85 99 100 100 100 96 67 58 79 100 100 99 100
55 93 82 63 30 56 61 30 21 24 29 29 85 100 100 93 96 97 76 100 100 89 100 100 100 100 100 100 100 100 100 100
59 100 97 51 35 35 50 60 48 23 20 24 29 36 73 97 100 100 86 99 100 100 100 100 96 88 100 100 99 99 100 99
100 100 100 94 60 37 33 82 64 54 26 20 22 28 28 28 50 100 100 90 71 87 98 100 100 100 100 100 97 95 84 76
100 100 100 74 66 44 42 51 100 78 40 25 22 22 23 30 29 32 55 92 100 100 97 97 88 86 99 100 100 100 99 100
95 97 100 100 92 71 58 55 75 100 56 42 38 28 29 26 32 39 36 32 39 57 72 88 100 100 100 100 100 100 100 100
100 98 91 100 92 87 64 48 46 71 100 85 67 53 38 23 37 30 30 36 39 39 34 34 36 34 34 33 31 32 29 36
82 89 76 64 67 63 59 77 82 77 80 86 92 83 56 41 31 36 26 31 30 30 42 38 49 38 38 40 40 41 40 40
82 58 54 57 64 50 48 56 44 40 80 98 100 100 88 62 36 32 47 41 51 45 29 32 41 79 66 39 38 44 44 46
100 100 84 67 62 75 65 61 51 44 52 53 100 100 100 78 52 58 72 99 88 75 44 39 34 29 30 43 53 45 40 53
100 100 100 70 54 60 81 81 58 58 51 66 79 86 97 95 73 55 58 91 97 98 72 61 54 42 36 32 33 44 87 84
100 100 100 100 100 99 100 94 89 94 74 83 93 76 52 58 39 78 76 56 43 44 42 66 74 69 66 56 46 37 37 46

GFSFLT1_250_rhum_066.txt.gz
RH
67 36 36 28 22 22 26 20 17 20 33 84 100 100 100 100 100 96 100 100 100 100 92 100 100 97 96 88 82 63 50 91
53 29 28 22 23 22 27 22 16 16 27 73 100 100 100 100 100 100 100 100 100 100 100 100 100 100 95 93 97 75 100 100
36 29 30 26 25 26 26 23 22 25 29 49 59 94 100 100 100 100 100 100 100 100 100 100 100 100 93 92 93 94 100 100
32 32 30 34 23 24 21 25 23 59 57 72 52 45 73 86 97 100 100 99 100 100 100 97 96 83 78 94 98 100 100 100
30 35 33 34 33 31 25 23 24 25 73 59 60 49 41 59 73 89 95 100 92 84 94 87 74 68 66 96 100 100 100 100
30 33 36 39 46 44 38 28 21 25 27 71 56 52 48 42 60 61 70 92 87 89 82 77 66 59 58 100 100 100 100 83
33 36 37 38 48 50 46 36 21 24 25 26 60 60 44 40 47 63 61 71 88 82 75 81 83 79 100 100 98 88 78 92
37 37 40 37 43 40 44 47 40 31 22 23 30 78 94 55 47 49 50 49 56 94 100 100 100 100 100 100 96 90 100 100
54 34 45 48 49 43 37 40 54 49 35 28 25 29 91 100 87 58 53 58 81 70 96 100 100 100 98 72 81 93 85 79
47 44 50 45 64 60 42 46 51 57 43 42 28 21 25 27 85 100 100 80 75 68 53 73 100 100 100 100 99 100 100 100
67 46 51 52 99 100 87 48 39 62 73 71 43 32 25 22 22 23 36 72 96 91 99 68 53 78 89 100 99 97 99 96
100 96 94 87 100 100 84 74 52 36 53 93 64 48 40 38 26 23 29 31 36 88 95 82 76 75 71 66 63 64 56 59
100 100 100 100 100 100 97 93 83 61 45 49 79 67 62 57 54 43 30 25 31 38 38 53 99 100 100 100 100 100 100 100
100 100 100 100 100 100 100 100 99 79 73 65 61 76 66 71 77 62 39 35 24 24 26 29 37 41 43 44 45 53 62 69
100 100 100 100 100 100 100 88 75 77 55 53 63 69 74 77 86 90 76 57 42 30 26 30 30 28 30 26 28 36 52 60
87 94 100 100 100 100 100 98 87 80 78 68 67 57 55 68 76 97 100 98 72 53 38 36 73 79 80 67 36 32 34 30
74 70 72 78 79 98 94 84 82 68 64 85 76 68 54 48 69 97 99 100 94 77 67 45 44 88 67 55 37 33 32 32
78 75 71 60 59 64 65 69 72 76 71 82 84 82 74 61 69 69 89 98 78 94 92 72 66 66 73 62 64 49 46 64
64 78 72 64 56 53 53 60 64 61 70 85 96 87 74 79 72 56 75 77 64 60 85 68 87 100 94 91 92 100 100 92

GFSFLT1_250_rhum_069.txt.gz
RH
74 77 84 74 31 31 22 23 24 17 16 16 33 80 100 100 100 100 100 100 100 100 100 96 100 100 100 100 90 64 64 62
69 98 89 60 29 22 23 25 26 20 17 16 29 55 100 100 100 98 100 100 97 100 100 99 100 93 79 60 58 82 73 73
93 95 81 38 24 19 25 23 26 22 26 21 28 60 100 100 100 100 100 100 100 100 100 100 100 93 92 98 91 97 92 99
100 98 76 27 26 24 24 25 24 24 22 54 38 61 99 100 100 100 100 100 100 100 100 100 100 100 94 86 88 100 85 90
99 100 41 28 28 32 31 34 23 24 25 29 62 61 79 79 90 100 100 100 100 100 100 100 99 100 99 98 79 93 80 77
100 57 31 32 30 33 30 38 26 25 27 22 52 60 52 52 52 52 71 86 99 100 100 100 100 100 100 100 86 88 82 76
69 49 32 32 31 34 34 45 39 30 27 22 21 26 69 59 68 48 49 71 79 92 87 86 100 100 100 100 86 88 100 100
85 47 38 30 33 35 36 50 57 49 39 32 26 22 36 79 72 59 56 66 94 100 100 100 100 100 100 100 100 100 100 100
63 44 45 36 35 38 42 51 53 51 52 50 44 32 24 21 45 87 72 64 66 66 66 72 78 97 100 100 100 100 100 100
46 32 42 42 37 41 55 49 45 39 48 47 51 41 36 32 21 19 28 71 96 83 74 81 84 89 98 100 100 100 100 100
59 39 48 52 48 52 71 77 57 40 40 35 48 50 41 35 33 35 35 31 23 31 81 96 100 99 96 87 79 100 82 85
74 76 75 65 65 66 59 87 74 63 56 43 44 45 56 53 48 44 42 38 36 28 24 26 43 100 100 100 100 100 100 100
82 67 60 59 58 59 58 74 100 92 88 79 54 47 50 51 67 58 52 57 59 41 30 22 24 26 32 54 82 86 86 89
100 100 94 87 96 70 97 100 100 100 91 81 87 74 56 64 72 70 51 41 59 56 49 46 27 28 26 28 30 31 32 33
100 100 100 100 100 100 100 100 100 100 100 88 84 68 63 58 55 52 50 54 51 72 74 72 59 46 39 28 55 66 55 53
100 100 100 100 100 100 96 98 100 100 100 100 89 80 74 67 64 66 59 50 58 64 86 86 80 73 67 62 48 36 39 52
100 100 100 100 100 100 93 100 99 92 99 99 96 79 68 62 62 80 83 69 72 69 57 62 70 77 59 71 69 77 59 70
87 100 100 100 100 100 100 100 100 100 99 85 83 77 82 87 85 97 99 91 89 95 86 76 78 88 97 73 53 68 86 87
95 99 100 100 100 100 100 100 100 98 99 98 91 92 88 74 76 94 100 100 100 100 100 93 81 87 94 88 71 60 67 82

GFSFLT1_250_rhum_072.txt.gz
RH
41 61 100 93 59 66 78 44 31 21 19 20 17 15 48 100 100 98 100 100 100 100 100 99 100 99 100 97 68 75 87 75
50 80 99 61 60 76 43 28 21 23 25 22 26 17 61 100 100 100 89 100 100 100 100 100 100 99 88 100 99 100 100 74
82 79 88 67 71 77 30 25 22 24 25 22 46 20 43 100 100 100 92 100 100 100 100 100 98 98 100 98 100 97 79 74
75 66 83 92 80 49 30 24 28 22 25 26 53 30 41 100 100 100 79 100 100 100 100 100 100 100 100 100 100 94 77 96
62 79 86 97 85 32 35 30 29 24 28 30 38 84 35 76 100 100 100 100 100 100 100 100 100 100 100 94 83 94 100 100
80 95 89 98 80 35 40 29 38 28 27 28 27 88 80 71 100 100 100 100 100 100 100 100 100 100 100 100 100 100 100 100
78 100 100 100 84 36 40 30 38 39 34 29 29 46 90 87 70 81 84 90 94 100 100 100 100 100 100 100 100 100 100 99
98 100 100 100 77 36 39 33 43 45 47 38 32 23 32 80 91 69 57 64 55 60 86 94 100 100 100 100 100 100 100 92
100 100 100 82 67 38 37 39 40 39 42 51 46 34 31 23 46 86 98 87 64 67 99 100 100 100 100 100 100 92 90 90
64 78 73 61 35 36 36 48 58 47 48 49 47 47 43 34 30 26 31 52 77 78 77 76 98 100 100 100 98 100 99 100
29 50 60 55 55 48 40 49 68 49 38 31 32 42 51 37 32 31 28 27 30 32 45 64 88 91 86 91 96 100 100 100
36 37 78 100 97 58 40 49 56 60 85 57 39 35 33 45 43 40 37 36 33 35 37 30 24 23 26 38 81 97 97 91
49 39 89 95 79 65 50 47 57 67 74 80 62 55 53 45 44 42 44 40 36 34 36 40 36 34 25 24 25 25 34 51
62 54 69 80 77 70 62 65 82 84 65 79 99 81 58 66 72 60 50 44 41 39 31 38 48 44 49 40 38 36 34 42
65 74 86 78 84 91 93 99 100 97 91 86 98 95 65 73 79 82 70 63 50 48 42 37 36 53 64 66 66 51 44 40
96 96 100 93 99 100 100 100 100 86 51 68 85 86 88 74 71 74 81 86 69 64 58 54 53 47 45 51 69 75 70 58
100 100 100 100 96 88 84 95 90 83 100 100 99 95 88 83 89 80 76 74 74 74 72 71 75 76 76 63 60 60 56 55
100 100 100 100 100 100 95 99 100 89 80 96 100 100 100 100 100 91 70 64 63 70 74 82 88 90 88 78 70 70 69 65
100 100 100 100 100 100 100 100 100 100 100 100 98 90 92 100 100 99 93 80 63 71 73 84 89 88 95 89 90 84 63 62

GFSFLT1_250_rhum_075.txt.gz
RH
18 26 28 41 61 72 80 60 71 70 41 28 19 19 17 15 17 64 85 90 100 100 100 100 100 100 100 100 88 93 97 93
20 29 30 54 82 77 78 75 49 32 28 25 21 21 22 18 57 100 100 100 100 100 100 100 100 100 100 93 100 100 100 98
32 31 36 76 94 76 66 62 39 26 28 25 22 21 25 41 100 100 100 100 100 100 100 100 100 100 100 100 86 97 85 87
34 34 44 99 91 61 79 72 32 30 31 27 26 26 31 87 100 100 94 100 100 100 100 100 100 100 100 96 100 100 100 100
38 38 87 100 76 87 86 45 33 30 29 27 28 39 46 66 100 100 98 94 100 100 100 100 100 100 100 100 100 100 100 100
45 44 99 82 79 91 68 52 40 34 28 26 30 59 74 53 100 100 100 87 79 100 100 100 100 100 100 100 100 100 100 100
48 77 96 93 99 99 52 45 46 39 33 32 31 48 95 55 78 100 98 89 62 51 67 87 97 100 100 100 100 100 100 100
78 100 88 97 100 100 59 46 48 46 48 43 34 30 62 98 100 100 100 100 100 100 100 100 99 94 98 100 100 100 100 100
96 100 95 100 97 100 78 47 54 54 55 56 42 33 26 73 94 100 100 100 100 100 100 97 100 100 100 100 100 100 100 100
100 100 98 99 100 93 78 48 56 53 50 49 51 40 36 30 32 81 87 84 88 100 91 68 72 82 87 99 99 92 87 100
100 98 79 98 90 85 67 40 48 51 48 45 48 44 46 44 38 33 35 48 72 83 80 89 100 96 98 100 100 100 100 100
100 80 80 94 100 98 79 46 39 45 47 48 45 44 54 54 42 38 38 41 39 29 30 37 44 56 83 100 100 100 100 100
96 71 87 100 100 100 82 63 47 41 44 51 67 62 56 52 52 45 39 37 37 32 32 33 32 30 28 30 34 35 36 43
87 50 64 98 100 100 100 60 59 52 48 46 59 76 94 94 69 51 50 53 50 45 44 41 33 36 36 36 36 43 42 43
100 59 41 61 100 98 94 90 82 65 52 48 47 51 65 85 100 91 82 97 90 83 57 53 51 44 37 33 34 37 42 47
100 77 60 74 83 100 100 100 97 85 66 52 52 52 53 73 94 96 74 67 74 78 78 77 66 58 50 47 46 47 47 51
100 92 80 84 89 90 100 94 97 100 90 65 54 54 59 65 70 77 71 73 76 72 79 89 88 61 75 59 55 58 60 62
100 100 100 96 76 94 96 100 100 100 97 96 75 63 63 69 80 84 95 80 86 90 85 86 80 72 64 64 65 76 82 80
100 100 100 89 78 95 100 100 100 100 100 98 70 76 68 79 100 100 100 97 87 91 88 80 67 62 64 58 53 54 62 69